Location: Pedholt
(56.0260°N, 10.2097°E)
Time: 07:43:02
(UTC+00:00)

Transit 2A Rocket - Pass Details

Date: 28 July 2021
Orbit: 586 x 917 km, 66.7° (Epoch: 24 September)

Event Time Altitude Azimuth Distance (km) Brightness Sun altitude
Rises 23:35:09 0° 312° (NW) 3,227 8.8 -15.2°
Reaches altitude 10° 23:37:46 10° 301° (WNW) 2,353 7.9 -15.2°
Maximum altitude 23:42:15 27° 245° (WSW) 1,554 6.3 -15.1°
Enters shadow 23:44:40 20° 209° (SSW) 1,866 6.5 -15.1°
Drops below altitude 10° 23:47:00 10° 190° (S) 2,508 - -15.1°
Sets 23:49:54 0° 179° (S) 3,481 - -15.1°
